AV194 Weather Reports


Display with metric or nautical units.
time (UTC)temp
F
wind
direction
speed
MPH
gust
MPH
rain 1hr
in
rain 24hr
in
rain mn
in
humidity
%
barometer
mb
20260906012503 63 202 0.0 0.0 0.01 0.02 0.02 96 1012.3
20260906012002 63 202 0.0 0.0 0.01 0.02 0.02 96 1012.3
20260906011502 63 201 0.0 0.0 0.01 0.02 0.02 96 1012.3
20260906011002 63 202 0.0 0.0 0.01 0.02 0.02 96 1012.3
20260906010501 63 201 0.0 0.0 0.01 0.02 0.02 95 1012.3
20260906010104 63 201 0.0 0.0 0.01 0.02 0.02 95 1012.2
20260906005559 63 202 0.0 0.0 0.01 0.02 0.02 95 1012.2
20260906005059 63 202 0.0 0.0 0.01 0.02 0.02 95 1012.1
20260906004601 63 201 0.0 0.0 0.00 0.01 0.01 95 1012.0
20260906004058 63 202 0.0 0.0 0.00 0.01 0.01 95 1012.1
20260906003558 63 202 0.0 0.0 0.00 0.01 0.01 95 1012.1
20260906003057 63 201 0.0 0.0 0.00 0.01 0.01 94 1011.9
20260906002559 63 202 0.0 0.0 0.00 0.01 0.01 94 1011.9
20260906002056 63 202 0.0 0.0 0.00 0.01 0.01 94 1011.8
20260906001555 63 201 0.0 0.0 0.00 0.01 0.01 94 1011.8
20260906001056 63 201 0.0 0.0 0.00 0.01 0.01 94 1011.8
20260906000555 63 202 0.0 0.0 0.00 0.01 0.01 93 1011.7
20260906000100 63 202 0.0 0.0 0.00 0.01 0.01 93 1011.7
20260905235554 63 201 0.0 0.0 0.00 0.01 0.01 93 1011.7
20260905235054 63 202 0.0 0.0 0.00 0.01 0.01 93 1011.7
20260905234555 63 202 0.0 0.0 0.00 0.01 0.01 93 1011.6
20260905234057 63 202 0.0 0.0 0.00 0.01 0.01 92 1011.5
20260905233552 63 201 0.0 0.0 0.00 0.01 0.01 91 1011.5
20260905233100 64 202 0.0 0.0 0.00 0.01 0.01 91 1011.4
20260905232552 64 202 0.0 0.0 0.00 0.01 0.01 90 1011.4
20260905232052 64 117 0.0 0.0 0.00 0.01 0.01 90 1011.4
20260905231556 64 66 0.0 0.0 0.00 0.01 0.01 89 1011.5
20260905231051 65 30 0.0 0.0 0.00 0.01 0.01 89 1011.4
20260905230550 65 30 0.0 0.0 0.00 0.01 0.01 88 1011.3
20260905230050 65 19 0.0 0.0 0.00 0.01 0.01 88 1011.3
20260905225550 65 19 0.0 0.0 0.00 0.01 0.01 88 1011.3
20260905225048 65 19 0.0 0.0 0.00 0.01 0.01 88 1011.2
20260905224549 65 51 0.0 0.0 0.00 0.01 0.01 88 1011.1
20260905224047 65 51 0.0 0.0 0.00 0.01 0.01 88 1011.1
20260905223546 65 51 0.0 0.0 0.00 0.01 0.01 88 1011.0
20260905223047 65 51 0.0 0.0 0.00 0.01 0.01 88 1011.0
20260905222548 65 45 0.0 0.0 0.00 0.01 0.01 88 1011.0
20260905222048 65 42 0.0 0.0 0.00 0.01 0.01 88 1011.0
20260905221600 66 69 0.0 0.0 0.00 0.01 0.01 88 1011.0
20260905221046 66 68 0.0 0.0 0.00 0.01 0.01 87 1011.0
20260905220545 66 68 0.0 1.0 0.00 0.01 0.01 87 1010.9
20260905220045 66 67 0.0 1.0 0.00 0.01 0.01 87 1010.9
20260905215543 66 51 0.0 0.0 0.00 0.01 0.01 88 1010.8
20260905215045 66 14 0.0 0.0 0.00 0.01 0.01 88 1010.7
20260905214542 66 27 0.0 1.0 0.00 0.01 0.01 87 1010.6
20260905214041 65 27 0.0 4.0 0.00 0.01 0.01 87 1010.6
20260905213540 65 360 0.0 2.0 0.00 0.01 0.01 87 1010.5
20260905213040 65 53 0.0 2.0 0.00 0.01 0.01 88 1010.4
20260905212543 65 134 0.0 5.0 0.00 0.01 0.01 88 1010.4
20260905212039 65 108 0.0 5.0 0.00 0.01 0.01 88 1010.4
20260905211538 65 35 0.0 4.0 0.00 0.01 0.01 88 1010.3
20260905211037 65 86 0.0 6.0 0.00 0.01 0.01 88 1010.2
20260905210540 65 26 1.0 8.0 0.00 0.01 0.01 88 1010.2
20260905210037 65 15 1.0 8.0 0.00 0.01 0.01 88 1010.1
20260905205537 65 114 3.0 6.0 0.00 0.01 0.01 89 1010.1
20260905205036 65 111 2.0 7.0 0.00 0.01 0.01 89 1010.1
20260905204540 65 39 2.0 8.0 0.00 0.01 0.01 88 1010.1
20260905204035 66 57 5.0 8.0 0.00 0.01 0.01 89 1010.1
20260905203535 66 55 2.0 8.0 0.00 0.01 0.01 89 1010.1
20260905203035 66 94 3.0 8.0 0.00 0.01 0.01 88 1010.0
20260905202535 66 119 3.0 9.0 0.01 0.01 0.01 86 1010.1
20260905202034 67 65 3.0 12.0 0.01 0.01 0.01 82 1010.1
20260905201534 70 5 8.0 12.0 0.01 0.01 0.01 76 1010.0
20260905201032 72 318 5.0 21.0 0.01 0.01 0.01 73 1009.7
20260905200535 73 141 3.0 13.0 0.01 0.01 0.01 79 1009.6
20260905200032 73 117 3.0 6.0 0.01 0.01 0.01 77 1009.2
20260905195531 73 49 1.0 4.0 0.01 0.01 0.01 75 1009.1
20260905195031 73 103 1.0 4.0 0.01 0.01 0.01 76 1009.1
20260905194530 73 105 1.0 3.0 0.01 0.01 0.01 76 1009.1
20260905194032 73 118 1.0 4.0 0.01 0.01 0.01 72 1009.1
20260905193530 73 27 0.0 6.0 0.01 0.01 0.01 72 1009.0
20260905193039 73 19 0.0 6.0 0.01 0.01 0.01 69 1009.1
20260905192532 73 107 1.0 9.0 0.00 0.00 0.00 70 1009.1
20260905192030 73 110 4.0 9.0 0.00 0.00 0.00 68 1009.1
20260905191530 73 26 0.0 8.0 0.00 0.00 0.00 67 1009.0
20260905191029 73 77 4.0 7.0 0.00 0.00 0.00 68 1009.1
20260905190529 72 98 1.0 6.0 0.00 0.00 0.00 69 1009.1
20260905190039 72 59 0.0 6.0 0.00 0.00 0.00 71 1009.1
20260905185529 72 102 3.0 6.0 0.00 0.00 0.00 70 1009.1
20260905185031 72 80 1.0 5.0 0.00 0.00 0.00 70 1009.2
20260905184532 72 360 1.0 6.0 0.00 0.00 0.00 72 1009.2
20260905184028 72 163 2.0 7.0 0.00 0.00 0.00 70 1009.2
20260905183527 73 55 3.0 7.0 0.00 0.00 0.00 70 1009.2
20260905183027 73 49 2.0 8.0 0.00 0.00 0.00 68 1009.2
20260905182528 74 112 2.0 8.0 0.00 0.00 0.00 66 1009.1
20260905182027 75 107 2.0 7.0 0.00 0.00 0.00 65 1009.1
20260905181527 74 115 3.0 6.0 0.00 0.00 0.00 67 1009.2
20260905181026 74 90 4.0 6.0 0.00 0.00 0.00 67 1009.1
20260905180527 73 269 0.0 4.0 0.00 0.00 0.00 72 1009.1
20260905180034 72 121 0.0 4.0 0.00 0.00 0.00 71 1009.2
20260905175526 71 61 0.0 6.0 0.00 0.00 0.00 70 1009.2
20260905175026 72 107 1.0 8.0 0.00 0.00 0.00 70 1009.2
20260905174526 72 14 3.0 9.0 0.00 0.00 0.00 67 1009.2
20260905174025 73 153 3.0 5.0 0.00 0.00 0.00 68 1009.1
20260905173525 73 68 1.0 6.0 0.00 0.00 0.00 67 1009.0
20260905173024 73 78 3.0 6.0 0.00 0.00 0.00 68 1009.0
20260905172525 74 28 3.0 7.0 0.00 0.00 0.00 67 1008.9
20260905172024 74 331 3.0 8.0 0.00 0.00 0.00 63 1008.9
20260905171530 75 87 4.0 8.0 0.00 0.00 0.00 64 1008.9
20260905171024 75 301 1.0 6.0 0.00 0.00 0.00 64 1008.8
20260905170521 74 68 1.0 3.0 0.00 0.00 0.00 72 1008.9
20260905170021 72 327 0.0 6.0 0.00 0.00 0.00 73 1009.0
20260905165522 71 41 2.0 6.0 0.00 0.00 0.00 73 1009.0
20260905165019 71 128 1.0 5.0 0.00 0.00 0.00 71 1009.0
20260905164519 71 110 1.0 5.0 0.00 0.00 0.00 71 1009.0
20260905164020 72 26 2.0 6.0 0.00 0.00 0.00 71 1009.1
20260905163518 72 70 2.0 6.0 0.00 0.00 0.00 70 1009.0
20260905163018 72 57 1.0 8.0 0.00 0.00 0.00 72 1009.1
20260905162517 71 344 3.0 7.0 0.00 0.00 0.00 74 1009.2
20260905162020 71 144 2.0 5.0 0.00 0.00 0.00 77 1009.1
20260905161523 71 102 0.0 5.0 0.00 0.00 0.00 75 1009.2
20260905161016 71 58 2.0 5.0 0.00 0.00 0.00 76 1009.2
20260905160517 71 88 1.0 2.0 0.00 0.00 0.00 78 1009.2
20260905160016 69 238 1.0 2.0 0.00 0.00 0.00 81 1009.2
20260905155513 69 204 0.0 2.0 0.00 0.00 0.00 81 1009.2
20260905155012 69 37 0.0 2.0 0.00 0.00 0.00 79 1009.3
20260905154513 69 28 0.0 2.0 0.00 0.00 0.00 79 1009.4
20260905154017 69 360 0.0 4.0 0.00 0.00 0.00 76 1009.3
20260905153513 70 36 1.0 5.0 0.00 0.00 0.00 75 1009.3
20260905153012 70 31 1.0 5.0 0.00 0.00 0.00 75 1009.3
20260905152513 70 119 1.0 6.0 0.00 0.00 0.00 75 1009.3
20260905152016 70 360 3.0 7.0 0.00 0.00 0.00 75 1009.2
20260905151512 70 13 3.0 6.0 0.00 0.00 0.00 75 1009.3
20260905151011 70 75 0.0 5.0 0.00 0.00 0.00 78 1009.3
20260905150511 70 101 1.0 6.0 0.00 0.00 0.00 76 1009.3
20260905150011 70 24 2.0 6.0 0.00 0.00 0.00 77 1009.3
20260905145515 70 190 0.0 5.0 0.00 0.00 0.00 77 1009.3
20260905145010 70 177 1.0 5.0 0.00 0.00 0.00 78 1009.3
20260905144518 70 102 0.0 5.0 0.00 0.00 0.00 77 1009.4
20260905144013 70 66 0.0 5.0 0.00 0.00 0.00 77 1009.3
20260905143509 70 67 1.0 6.0 0.00 0.00 0.00 77 1009.3
20260905143008 70 113 2.0 6.0 0.00 0.00 0.00 78 1009.4
20260905142508 69 304 0.0 2.0 0.00 0.00 0.00 79 1009.4
20260905142005 69 301 0.0 2.0 0.00 0.00 0.00 82 1009.4
20260905141510 68 86 0.0 2.0 0.00 0.00 0.00 82 1009.5
20260905141003 68 51 0.0 2.0 0.00 0.00 0.00 82 1009.6
20260905140505 68 26 0.0 2.0 0.00 0.00 0.00 83 1009.5
20260905140002 67 14 0.0 2.0 0.00 0.00 0.00 83 1009.5
20260905135600 67 340 0.0 4.0 0.00 0.00 0.00 82 1009.5
20260905135100 67 22 0.0 4.0 0.00 0.00 0.00 84 1009.4
20260905134604 67 103 0.0 2.0 0.00 0.00 0.00 83 1009.4
20260905134100 67 12 0.0 2.0 0.00 0.00 0.00 83 1009.4
20260905133557 67 10 0.0 5.0 0.00 0.00 0.00 83 1009.3
20260905133057 67 118 1.0 5.0 0.00 0.00 0.00 84 1009.3
20260905132557 67 11 1.0 5.0 0.00 0.00 0.00 83 1009.2
20260905132058 67 269 1.0 5.0 0.00 0.00 0.00 83 1009.1
20260905131555 67 69 1.0 5.0 0.00 0.00 0.00 84 1009.0
20260905131055 67 98 0.0 2.0 0.00 0.00 0.00 85 1008.9
20260905130553 66 17 0.0 2.0 0.00 0.00 0.00 85 1009.0
20260905130052 66 21 0.0 2.0 0.00 0.00 0.00 86 1009.0
20260905125551 66 96 0.0 2.0 0.00 0.00 0.00 86 1009.0
20260905125050 66 57 0.0 2.0 0.00 0.00 0.00 87 1009.0
20260905124554 66 50 0.0 2.0 0.00 0.00 0.00 86 1008.9
20260905124048 66 29 0.0 6.0 0.00 0.00 0.00 86 1008.9
20260905123551 66 136 2.0 6.0 0.00 0.00 0.00 87 1008.8
20260905123046 66 80 2.0 5.0 0.00 0.00 0.00 88 1008.7
20260905122546 65 54 0.0 4.0 0.00 0.00 0.00 88 1008.6
20260905122049 65 51 0.0 5.0 0.00 0.00 0.00 88 1008.6
20260905121547 65 34 2.0 5.0 0.00 0.00 0.00 89 1008.5
20260905121045 65 67 0.0 5.0 0.00 0.00 0.00 90 1008.5
20260905120543 64 92 0.0 4.0 0.00 0.00 0.00 90 1008.5
20260905120057 64 360 1.0 4.0 0.00 0.00 0.00 91 1008.5
20260905115543 64 165 0.0 2.0 0.00 0.00 0.00 91 1008.5
20260905115044 64 165 0.0 2.0 0.00 0.00 0.00 92 1008.4
20260905114557 63 178 0.0 2.0 0.00 0.00 0.00 92 1008.3
20260905114041 63 178 0.0 2.0 0.00 0.00 0.00 93 1008.4
20260905113541 63 171 0.0 2.0 0.00 0.00 0.00 93 1008.3
20260905113051 62 202 0.0 2.0 0.00 0.00 0.00 93 1008.3
20260905112539 62 202 0.0 2.0 0.00 0.00 0.00 94 1008.2
20260905112038 61 196 0.0 1.0 0.00 0.00 0.00 94 1008.2
20260905111617 61 196 0.0 1.0 0.00 0.00 0.00 94 1008.2
20260905111037 61 196 0.0 1.0 0.00 0.00 0.00 94 1008.2
20260905110537 61 196 0.0 1.0 0.00 0.00 0.00 93 1008.2
20260905110036 61 196 0.0 1.0 0.00 0.00 0.00 93 1008.2
20260905105536 61 196 0.0 1.0 0.00 0.00 0.00 93 1008.2
20260905105035 60 196 0.0 2.0 0.00 0.00 0.00 93 1008.1
20260905104533 60 196 0.0 1.0 0.00 0.00 0.00 93 1008.1
20260905104033 61 196 0.0 1.0 0.00 0.00 0.00 93 1008.1
20260905103533 61 196 0.0 1.0 0.00 0.00 0.00 93 1008.1
20260905103036 61 196 0.0 1.0 0.00 0.00 0.00 93 1008.0
20260905102533 60 196 0.0 1.0 0.00 0.00 0.00 92 1007.9
20260905102032 60 195 0.0 1.0 0.00 0.00 0.00 92 1008.0
20260905101532 61 165 0.0 1.0 0.00 0.00 0.00 92 1008.0
20260905101031 61 165 0.0 1.0 0.00 0.00 0.00 92 1008.0
20260905100531 61 165 0.0 1.0 0.00 0.00 0.00 92 1007.9
20260905100030 61 165 0.0 1.0 0.00 0.00 0.00 92 1007.9
20260905095530 61 165 0.0 1.0 0.00 0.00 0.00 92 1007.9
20260905095032 61 165 0.0 1.0 0.00 0.00 0.00 92 1007.9
20260905094529 61 165 0.0 2.0 0.00 0.00 0.00 92 1007.8
20260905094028 61 157 0.0 2.0 0.00 0.00 0.00 91 1007.8
20260905093528 61 132 0.0 2.0 0.00 0.00 0.00 91 1007.7
20260905093028 61 197 0.0 2.0 0.00 0.00 0.00 91 1007.6
20260905092530 61 197 0.0 1.0 0.00 0.00 0.00 91 1007.7
20260905092027 61 197 0.0 1.0 0.00 0.00 0.00 91 1007.6
20260905091527 61 145 0.0 1.0 0.00 0.00 0.00 90 1007.6
20260905091027 62 145 0.0 1.0 0.00 0.00 0.00 90 1007.6
20260905090526 62 145 0.0 1.0 0.00 0.00 0.00 90 1007.7
20260905090026 62 145 0.0 1.0 0.00 0.00 0.00 90 1007.6
20260905085525 62 118 0.0 2.0 0.00 0.00 0.00 90 1007.6
20260905085024 62 178 0.0 1.0 0.00 0.00 0.00 89 1007.5
20260905084523 62 182 0.0 1.0 0.00 0.00 0.00 89 1007.5
20260905084024 62 182 0.0 1.0 0.00 0.00 0.00 89 1007.5
20260905083526 63 182 0.0 1.0 0.00 0.00 0.00 89 1007.5
20260905083022 63 126 0.0 1.0 0.00 0.00 0.00 88 1007.5
20260905082522 63 119 0.0 1.0 0.00 0.00 0.00 87 1007.5
20260905082022 63 119 0.0 2.0 0.00 0.00 0.00 87 1007.5
20260905081522 63 119 0.0 2.0 0.00 0.00 0.00 87 1007.5
20260905081021 64 187 0.0 1.0 0.00 0.00 0.00 87 1007.4
20260905080522 64 195 0.0 1.0 0.00 0.00 0.00 87 1007.4
20260905080029 64 195 0.0 2.0 0.00 0.00 0.00 87 1007.4
20260905075521 64 195 0.0 2.0 0.00 0.00 0.00 87 1007.4
20260905075020 64 184 0.0 2.0 0.00 0.00 0.00 87 1007.4
20260905074520 64 180 0.0 2.0 0.00 0.00 0.00 87 1007.4
20260905074020 64 167 0.0 2.0 0.00 0.00 0.00 87 1007.4
20260905073519 64 167 0.0 2.0 0.00 0.00 0.00 87 1007.3
20260905073027 64 212 0.0 2.0 0.00 0.00 0.00 88 1007.5
20260905072619 64 194 0.0 2.0 0.00 0.00 0.00 88 1007.4
20260905072019 63 171 0.0 2.0 0.00 0.00 0.00 89 1007.5
20260905071519 63 244 0.0 1.0 0.00 0.00 0.00 89 1007.6
20260905071019 63 323 0.0 1.0 0.00 0.00 0.00 89 1007.6
20260905070519 63 341 0.0 1.0 0.00 0.00 0.00 89 1007.7
20260905070117 63 341 0.0 1.0 0.00 0.00 0.00 89 1007.7
20260905065516 62 336 0.0 1.0 0.00 0.00 0.00 89 1007.8
20260905065018 62 336 0.0 0.0 0.00 0.00 0.00 89 1007.9
20260905064534 62 336 0.0 0.0 0.00 0.00 0.00 88 1007.9
20260905064014 62 336 0.0 0.0 0.00 0.00 0.00 88 1007.9
20260905063516 62 336 0.0 0.0 0.00 0.00 0.00 88 1007.9
20260905063014 63 336 0.0 2.0 0.00 0.00 0.00 88 1007.9
20260905062513 63 336 0.0 2.0 0.00 0.00 0.00 88 1007.9
20260905062012 63 336 0.0 2.0 0.00 0.00 0.00 88 1007.9
20260905061512 63 336 0.0 0.0 0.00 0.00 0.00 88 1007.9
20260905061012 63 336 0.0 0.0 0.00 0.00 0.00 87 1007.9
20260905060511 63 336 0.0 0.0 0.00 0.00 0.00 88 1007.9
20260905060011 63 336 0.0 2.0 0.00 0.00 0.00 88 1008.0
20260905055510 63 338 0.0 2.0 0.00 0.00 0.00 88 1008.1
20260905055012 63 9 0.0 1.0 0.00 0.00 0.00 87 1008.2
20260905054511 63 355 0.0 2.0 0.00 0.00 0.00 87 1008.1
20260905054013 63 355 0.0 2.0 0.00 0.00 0.00 86 1008.1
20260905053508 63 355 0.0 2.0 0.00 0.00 0.00 86 1008.1
20260905053007 63 355 0.0 2.0 0.00 0.00 0.00 86 1008.2
20260905052506 63 355 0.0 1.0 0.00 0.00 0.00 86 1008.3
20260905052006 64 355 0.0 2.0 0.00 0.00 0.00 86 1008.3
20260905051515 64 355 0.0 2.0 0.00 0.00 0.00 86 1008.2
20260905051005 64 355 0.0 2.0 0.00 0.00 0.00 85 1008.2
20260905050505 64 355 1.0 2.0 0.00 0.00 0.00 85 1008.3
20260905050006 64 355 0.0 2.0 0.00 0.00 0.00 84 1008.3
20260905045503 64 355 0.0 2.0 0.00 0.00 0.00 84 1008.4
20260905045002 64 355 0.0 0.0 0.00 0.00 0.00 84 1008.3
20260905044502 64 355 0.0 0.0 0.00 0.00 0.00 84 1008.3
20260905044000 65 355 0.0 0.0 0.00 0.00 0.00 84 1008.2
20260905043602 65 355 0.0 0.0 0.00 0.00 0.00 84 1008.2
20260905043106 65 355 0.0 0.0 0.00 0.00 0.00 84 1008.1
20260905042603 65 355 0.0 0.0 0.00 0.00 0.00 84 1008.1
20260905042058 65 355 0.0 0.0 0.00 0.00 0.00 84 1008.1
20260905041601 65 355 0.0 1.0 0.00 0.00 0.00 83 1008.3
20260905041058 65 355 0.0 1.0 0.00 0.00 0.00 83 1008.2
20260905040556 65 355 0.0 1.0 0.00 0.00 0.00 83 1008.3
20260905040056 65 355 0.0 0.0 0.00 0.00 0.00 82 1008.2
20260905035555 66 355 0.0 1.0 0.00 0.00 0.00 82 1008.2
20260905035056 66 355 0.0 1.0 0.00 0.00 0.00 82 1008.1
20260905034603 66 355 0.0 1.0 0.00 0.00 0.00 81 1008.1
20260905034055 66 35 0.0 0.0 0.00 0.00 0.00 81 1008.1
20260905033554 67 35 0.0 0.0 0.00 0.00 0.00 80 1008.1
20260905033054 67 35 0.0 0.0 0.00 0.00 0.00 80 1008.1
20260905032554 67 35 0.0 1.0 0.00 0.00 0.00 79 1008.1
20260905032053 67 35 0.0 1.0 0.00 0.00 0.00 79 1008.1
20260905031556 67 35 0.0 1.0 0.00 0.00 0.00 79 1008.1
20260905031053 68 35 0.0 0.0 0.00 0.00 0.00 80 1008.2
20260905030553 68 35 0.0 1.0 0.00 0.00 0.00 79 1008.2
20260905030110 68 35 0.0 1.0 0.00 0.00 0.00 79 1008.3
20260905025554 68 35 0.0 1.0 0.00 0.00 0.00 79 1008.2
20260905025056 68 35 0.0 1.0 0.00 0.00 0.00 80 1008.3
20260905024553 68 35 0.0 1.0 0.00 0.00 0.00 80 1008.3
20260905024052 68 35 0.0 1.0 0.00 0.00 0.00 80 1008.3
20260905023555 68 35 0.0 1.0 0.00 0.00 0.00 79 1008.3
20260905023052 68 35 0.0 1.0 0.00 0.00 0.00 79 1008.4
20260905022551 68 35 0.0 1.0 0.00 0.00 0.00 78 1008.3
20260905022052 68 13 0.0 1.0 0.00 0.00 0.00 78 1008.4
20260905021552 69 13 0.0 1.0 0.00 0.00 0.00 78 1008.3
20260905021052 68 13 0.0 1.0 0.00 0.00 0.00 77 1008.4
20260905020551 68 13 0.0 1.0 0.00 0.00 0.00 78 1008.5
20260905020052 68 13 0.0 1.0 0.00 0.00 0.00 78 1008.6
20260905015551 68 61 0.0 2.0 0.00 0.00 0.00 79 1008.5
20260905015053 68 61 0.0 2.0 0.00 0.00 0.00 79 1008.7
20260905014556 68 81 0.0 2.0 0.00 0.00 0.00 79 1008.6
20260905014050 68 55 0.0 1.0 0.00 0.00 0.00 79 1008.7
20260905013553 68 55 0.0 1.0 0.00 0.00 0.00 77 1008.7
20260905013053 68 55 0.0 1.0 0.00 0.00 0.00 76 1008.7